| time (UTC) | temp F | wind direction | speed knots | gust knots | rain 1hr in | rain 24hr in | rain mn in | humidity % | barometer mb |
| 20260505051707 | 58 | 217 | 0.0 | 0.0 | 0.00 | 0.00 | 0.00 | 75 | 1011.4 |
| 20260505051205 | 59 | 223 | 0.0 | 0.0 | 0.00 | 0.00 | 0.00 | 72 | 1011.6 |
| 20260505050657 | 60 | 161 | 0.9 | 1.7 | 0.00 | 0.00 | 0.00 | 68 | 1011.8 |
| 20260505050156 | 57 | 189 | 0.9 | 1.7 | 0.00 | 0.00 | 0.00 | 73 | 1011.5 |
| 20260505041630 | 51 | 237 | 0.0 | 0.0 | 0.00 | 0.00 | 0.00 | 89 | 1011.4 |
| 20260505041128 | 51 | 237 | 0.0 | 0.0 | 0.00 | 0.00 | 0.00 | 89 | 1011.4 |
| 20260505040624 | 51 | 237 | 0.0 | 0.0 | 0.00 | 0.00 | 0.00 | 89 | 1011.4 |
| 20260505040122 | 52 | 237 | 0.0 | 0.0 | 0.00 | 0.00 | 0.00 | 89 | 1011.5 |
| 20260505035618 | 52 | 237 | 0.0 | 0.0 | 0.00 | 0.00 | 0.00 | 88 | 1011.5 |
| 20260505035114 | 52 | 237 | 0.0 | 0.0 | 0.00 | 0.00 | 0.00 | 89 | 1011.3 |
| 20260505034611 | 52 | 237 | 0.0 | 0.0 | 0.00 | 0.00 | 0.00 | 89 | 1011.4 |
| 20260505034108 | 52 | 237 | 0.0 | 0.0 | 0.00 | 0.00 | 0.00 | 89 | 1011.4 |
| 20260505033604 | 52 | 237 | 0.0 | 0.0 | 0.00 | 0.00 | 0.00 | 89 | 1011.6 |
| 20260505033058 | 52 | 237 | 0.0 | 0.0 | 0.00 | 0.00 | 0.00 | 88 | 1011.6 |
| 20260505032555 | 52 | 236 | 0.0 | 0.0 | 0.00 | 0.00 | 0.00 | 88 | 1011.5 |
| 20260505032051 | 52 | 236 | 0.0 | 0.0 | 0.00 | 0.00 | 0.00 | 88 | 1011.5 |
| 20260505031549 | 52 | 223 | 0.0 | 0.0 | 0.00 | 0.00 | 0.00 | 88 | 1011.4 |
| 20260505031045 | 53 | 219 | 0.0 | 0.0 | 0.00 | 0.00 | 0.00 | 88 | 1011.5 |
| 20260505030542 | 53 | 213 | 0.0 | 0.0 | 0.00 | 0.00 | 0.00 | 88 | 1011.5 |
| 20260505030038 | 53 | 211 | 0.0 | 0.0 | 0.00 | 0.00 | 0.00 | 88 | 1011.5 |
| 20260505025534 | 53 | 216 | 0.0 | 0.0 | 0.00 | 0.00 | 0.00 | 87 | 1011.6 |
| 20260505025033 | 53 | 198 | 0.0 | 0.0 | 0.00 | 0.00 | 0.00 | 86 | 1011.8 |
| 20260505024530 | 53 | 184 | 0.0 | 0.0 | 0.00 | 0.00 | 0.00 | 86 | 1011.5 |
| 20260505024027 | 53 | 184 | 0.0 | 0.0 | 0.00 | 0.00 | 0.00 | 85 | 1011.6 |
| 20260505023524 | 53 | 185 | 0.0 | 0.0 | 0.00 | 0.00 | 0.00 | 84 | 1011.6 |
| 20260505023022 | 53 | 185 | 0.0 | 0.0 | 0.00 | 0.00 | 0.00 | 83 | 1011.5 |
| 20260505022519 | 54 | 185 | 0.0 | 0.0 | 0.00 | 0.00 | 0.00 | 83 | 1011.7 |
| 20260505022016 | 55 | 178 | 0.0 | 0.0 | 0.00 | 0.00 | 0.00 | 79 | 1011.7 |
| 20260505021513 | 0 | 0.0 | 0.0 | 0.00 | 0.00 | 0.00 | 1011.6 | ||
| 20260505021009 | 0 | 0.0 | 0.0 | 0.00 | 0.00 | 0.00 | 1011.6 | ||
| 20260505020508 | 58 | 178 | 0.0 | 0.0 | 0.00 | 0.00 | 0.00 | 72 | 1011.6 |
| 20260505020006 | 58 | 178 | 0.0 | 0.0 | 0.00 | 0.00 | 0.00 | 72 | 1011.8 |
| 20260505015503 | 60 | 139 | 0.0 | 0.0 | 0.00 | 0.00 | 0.00 | 69 | 1011.7 |
| 20260505015000 | 60 | 139 | 0.0 | 0.0 | 0.00 | 0.00 | 0.00 | 69 | 1011.7 |
| 20260505014457 | 61 | 135 | 0.0 | 0.0 | 0.00 | 0.00 | 0.00 | 68 | 1011.7 |
| 20260505013954 | 62 | 136 | 0.0 | 0.0 | 0.00 | 0.00 | 0.00 | 65 | 1011.7 |
| 20260505013451 | 64 | 142 | 0.0 | 0.0 | 0.00 | 0.00 | 0.00 | 60 | 1011.7 |
| 20260505012948 | 64 | 131 | 0.0 | 0.0 | 0.00 | 0.00 | 0.00 | 59 | 1011.6 |
| 20260505012446 | 65 | 177 | 0.9 | 0.9 | 0.00 | 0.00 | 0.00 | 59 | 1011.7 |
| 20260505011943 | 65 | 146 | 0.9 | 1.7 | 0.00 | 0.00 | 0.00 | 58 | 1011.7 |
| 20260505011439 | 65 | 172 | 0.9 | 2.6 | 0.00 | 0.00 | 0.00 | 58 | 1011.7 |
| 20260505010936 | 65 | 101 | 1.7 | 2.6 | 0.00 | 0.00 | 0.00 | 58 | 1011.7 |
| 20260505010432 | 65 | 174 | 1.7 | 3.5 | 0.00 | 0.00 | 0.00 | 58 | 1011.7 |
| 20260505005928 | 65 | 177 | 2.6 | 3.5 | 0.00 | 0.00 | 0.00 | 58 | 1011.5 |
| 20260505005425 | 65 | 152 | 2.6 | 3.5 | 0.00 | 0.00 | 0.00 | 57 | 1011.6 |
| 20260505004922 | 66 | 143 | 2.6 | 2.6 | 0.00 | 0.00 | 0.00 | 57 | 1011.5 |
| 20260505004418 | 66 | 153 | 3.5 | 5.2 | 0.00 | 0.00 | 0.00 | 56 | 1011.5 |
| 20260505003915 | 67 | 153 | 0.9 | 5.2 | 0.00 | 0.00 | 0.00 | 55 | 1011.3 |
| 20260505003413 | 67 | 144 | 0.9 | 0.9 | 0.00 | 0.00 | 0.00 | 56 | 1011.4 |
| 20260505002909 | 67 | 172 | 1.7 | 1.7 | 0.00 | 0.00 | 0.00 | 55 | 1011.4 |
| 20260505002405 | 67 | 146 | 3.5 | 6.1 | 0.00 | 0.00 | 0.00 | 55 | 1011.2 |
| 20260505001904 | 67 | 178 | 0.9 | 5.2 | 0.00 | 0.00 | 0.00 | 56 | 1010.9 |
| 20260505001401 | 67 | 158 | 2.6 | 3.5 | 0.00 | 0.00 | 0.00 | 55 | 1011.0 |
| 20260505000858 | 67 | 142 | 1.7 | 2.6 | 0.00 | 0.00 | 0.00 | 57 | 1011.0 |
| 20260505000358 | 66 | 176 | 1.7 | 7.8 | 0.00 | 0.00 | 0.00 | 58 | 1011.2 |
| 20260504235852 | 67 | 143 | 1.7 | 2.6 | 0.00 | 0.00 | 0.00 | 57 | 1011.3 |
| 20260504235349 | 0 | 0.0 | 0.0 | 0.00 | 0.00 | 0.00 | 1011.4 | ||
| 20260504234845 | 0 | 0.0 | 0.0 | 0.00 | 0.00 | 0.00 | 1011.3 | ||
| 20260504234343 | 68 | 145 | 0.9 | 0.9 | 0.00 | 0.00 | 0.00 | 55 | 1011.3 |
| 20260504233840 | 68 | 145 | 0.9 | 0.9 | 0.00 | 0.00 | 0.00 | 55 | 1011.3 |
| 20260504233335 | 68 | 178 | 2.6 | 3.5 | 0.00 | 0.00 | 0.00 | 54 | 1011.2 |
| 20260504232833 | 68 | 173 | 2.6 | 3.5 | 0.00 | 0.00 | 0.00 | 53 | 1011.0 |
| 20260504232329 | 68 | 167 | 1.7 | 1.7 | 0.00 | 0.00 | 0.00 | 53 | 1011.0 |
| 20260504231826 | 69 | 151 | 3.5 | 7.0 | 0.00 | 0.00 | 0.00 | 53 | 1011.0 |
| 20260504231323 | 69 | 247 | 1.7 | 7.0 | 0.00 | 0.00 | 0.00 | 54 | 1011.0 |
| 20260504230819 | 70 | 148 | 0.0 | 2.6 | 0.00 | 0.00 | 0.00 | 53 | 1011.2 |
| 20260504230317 | 70 | 137 | 0.0 | 3.5 | 0.00 | 0.00 | 0.00 | 53 | 1011.0 |
| 20260504225816 | 70 | 164 | 2.6 | 5.2 | 0.00 | 0.00 | 0.00 | 52 | 1011.0 |
| 20260504225311 | 70 | 154 | 3.5 | 6.1 | 0.00 | 0.00 | 0.00 | 51 | 1011.0 |
| 20260504224809 | 69 | 157 | 2.6 | 5.2 | 0.00 | 0.00 | 0.00 | 52 | 1011.2 |
| 20260504224306 | 69 | 138 | 0.9 | 3.5 | 0.00 | 0.00 | 0.00 | 55 | 1011.3 |
| 20260504223802 | 70 | 135 | 2.6 | 5.2 | 0.00 | 0.00 | 0.00 | 50 | 1011.3 |
| 20260504223258 | 70 | 194 | 4.3 | 8.7 | 0.00 | 0.00 | 0.00 | 52 | 1011.3 |
| 20260504222755 | 69 | 133 | 1.7 | 1.7 | 0.00 | 0.00 | 0.00 | 53 | 1011.7 |
| 20260504222252 | 69 | 213 | 7.0 | 8.7 | 0.00 | 0.00 | 0.00 | 53 | 1011.5 |
| 20260504221750 | 69 | 180 | 5.2 | 7.8 | 0.00 | 0.00 | 0.00 | 53 | 1011.5 |
| 20260504221247 | 70 | 234 | 0.9 | 1.7 | 0.00 | 0.00 | 0.00 | 52 | 1011.4 |
| 20260504220743 | 70 | 184 | 5.2 | 7.8 | 0.00 | 0.00 | 0.00 | 53 | 1011.4 |
| 20260504220240 | 70 | 174 | 2.6 | 6.1 | 0.00 | 0.00 | 0.00 | 53 | 1011.2 |
| 20260504215737 | 70 | 87 | 5.2 | 13.9 | 0.00 | 0.00 | 0.00 | 50 | 1010.8 |
| 20260504215234 | 70 | 183 | 2.6 | 5.2 | 0.00 | 0.00 | 0.00 | 50 | 1010.9 |
| 20260504214730 | 71 | 147 | 4.3 | 7.0 | 0.00 | 0.00 | 0.00 | 51 | 1010.9 |
| 20260504214226 | 71 | 186 | 3.5 | 7.0 | 0.00 | 0.00 | 0.00 | 51 | 1010.9 |
| 20260504213723 | 72 | 92 | 3.5 | 7.8 | 0.00 | 0.00 | 0.00 | 50 | 1010.6 |
| 20260504213220 | 71 | 39 | 5.2 | 8.7 | 0.00 | 0.00 | 0.00 | 50 | 1010.7 |
| 20260504212717 | 71 | 122 | 3.5 | 5.2 | 0.00 | 0.00 | 0.00 | 51 | 1010.9 |
| 20260504212214 | 70 | 72 | 3.5 | 8.7 | 0.00 | 0.00 | 0.00 | 49 | 1010.9 |
| 20260504211711 | 70 | 217 | 2.6 | 2.6 | 0.00 | 0.00 | 0.00 | 50 | 1010.9 |
| 20260504211207 | 70 | 232 | 7.0 | 8.7 | 0.00 | 0.00 | 0.00 | 51 | 1010.9 |
| 20260504210704 | 70 | 158 | 3.5 | 3.5 | 0.00 | 0.00 | 0.00 | 51 | 1010.8 |
| 20260504210201 | 70 | 79 | 3.5 | 6.1 | 0.00 | 0.00 | 0.00 | 52 | 1011.2 |
| 20260504205658 | 71 | 140 | 5.2 | 7.8 | 0.00 | 0.00 | 0.00 | 50 | 1010.6 |
| 20260504205155 | 72 | 145 | 2.6 | 9.6 | 0.00 | 0.00 | 0.00 | 50 | 1010.9 |
| 20260504204654 | 72 | 254 | 6.1 | 11.3 | 0.00 | 0.00 | 0.00 | 48 | 1010.8 |
| 20260504204152 | 73 | 147 | 3.5 | 7.8 | 0.00 | 0.00 | 0.00 | 48 | 1010.8 |
| 20260504203651 | 72 | 151 | 2.6 | 3.5 | 0.00 | 0.00 | 0.00 | 49 | 1010.7 |
| 20260504203149 | 70 | 87 | 2.6 | 6.1 | 0.00 | 0.00 | 0.00 | 50 | 1010.8 |
| 20260504202648 | 69 | 159 | 3.5 | 7.8 | 0.00 | 0.00 | 0.00 | 49 | 1010.9 |
| 20260504202146 | 69 | 156 | 4.3 | 6.1 | 0.00 | 0.00 | 0.00 | 50 | 1011.0 |
| 20260504201643 | 70 | 189 | 3.5 | 7.0 | 0.00 | 0.00 | 0.00 | 51 | 1011.0 |
| 20260504201140 | 71 | 87 | 1.7 | 9.6 | 0.00 | 0.00 | 0.00 | 50 | 1010.9 |
| 20260504200637 | 71 | 85 | 5.2 | 7.8 | 0.00 | 0.00 | 0.00 | 48 | 1011.2 |
| 20260504200134 | 71 | 124 | 1.7 | 7.0 | 0.00 | 0.00 | 0.00 | 49 | 1011.2 |
| 20260504195630 | 72 | 149 | 4.3 | 8.7 | 0.00 | 0.00 | 0.00 | 52 | 1011.0 |
| 20260504195126 | 71 | 265 | 1.7 | 6.1 | 0.00 | 0.00 | 0.00 | 53 | 1011.2 |
| 20260504194623 | 71 | 166 | 3.5 | 11.3 | 0.00 | 0.00 | 0.00 | 52 | 1011.0 |
| 20260504194119 | 71 | 184 | 4.3 | 7.0 | 0.00 | 0.00 | 0.00 | 49 | 1011.3 |
| 20260504193615 | 71 | 189 | 7.8 | 12.2 | 0.00 | 0.00 | 0.00 | 49 | 1011.3 |
| 20260504193114 | 71 | 179 | 5.2 | 8.7 | 0.00 | 0.00 | 0.00 | 51 | 1011.2 |
| 20260504192612 | 70 | 192 | 3.5 | 5.2 | 0.00 | 0.00 | 0.00 | 52 | 1011.3 |
| 20260504192109 | 71 | 175 | 4.3 | 11.3 | 0.00 | 0.00 | 0.00 | 52 | 1011.4 |
| 20260504191608 | 70 | 189 | 9.6 | 11.3 | 0.00 | 0.00 | 0.00 | 52 | 1011.5 |
| 20260504191103 | 71 | 241 | 2.6 | 5.2 | 0.00 | 0.00 | 0.00 | 51 | 1011.6 |
| 20260504190600 | 71 | 159 | 3.5 | 9.6 | 0.00 | 0.00 | 0.00 | 54 | 1011.6 |
| 20260504190056 | 70 | 124 | 3.5 | 8.7 | 0.00 | 0.00 | 0.00 | 52 | 1011.6 |
| 20260504185553 | 70 | 192 | 3.5 | 6.1 | 0.00 | 0.00 | 0.00 | 51 | 1011.7 |
| 20260504185050 | 70 | 181 | 6.1 | 12.2 | 0.00 | 0.00 | 0.00 | 53 | 1011.9 |
| 20260504184545 | 71 | 235 | 4.3 | 5.2 | 0.00 | 0.00 | 0.00 | 52 | 1011.7 |
| 20260504184040 | 70 | 168 | 4.3 | 7.8 | 0.00 | 0.00 | 0.00 | 52 | 1011.9 |
| 20260504183538 | 69 | 128 | 5.2 | 7.8 | 0.00 | 0.00 | 0.00 | 52 | 1012.0 |
| 20260504183036 | 71 | 128 | 7.0 | 8.7 | 0.00 | 0.00 | 0.00 | 54 | 1012.1 |
| 20260504182532 | 70 | 343 | 1.7 | 3.5 | 0.00 | 0.00 | 0.00 | 55 | 1012.2 |
| 20260504182030 | 69 | 207 | 5.2 | 7.8 | 0.00 | 0.00 | 0.00 | 55 | 1012.3 |
| 20260504181527 | 69 | 76 | 7.0 | 12.2 | 0.00 | 0.00 | 0.00 | 54 | 1012.1 |
| 20260504181025 | 69 | 65 | 6.1 | 9.6 | 0.00 | 0.00 | 0.00 | 52 | 1012.1 |
| 20260504180524 | 69 | 152 | 4.3 | 12.2 | 0.00 | 0.00 | 0.00 | 55 | 1012.4 |
| 20260504180022 | 68 | 227 | 3.5 | 8.7 | 0.00 | 0.00 | 0.00 | 53 | 1012.3 |
| 20260504175519 | 68 | 164 | 4.3 | 13.0 | 0.00 | 0.00 | 0.00 | 56 | 1012.2 |
| 20260504175016 | 68 | 184 | 8.7 | 13.0 | 0.00 | 0.00 | 0.00 | 55 | 1012.3 |
| 20260504174514 | 68 | 146 | 8.7 | 11.3 | 0.00 | 0.00 | 0.00 | 53 | 1012.2 |
| 20260504174011 | 68 | 129 | 4.3 | 13.0 | 0.00 | 0.00 | 0.00 | 54 | 1012.3 |
| 20260504173507 | 68 | 136 | 1.7 | 5.2 | 0.00 | 0.00 | 0.00 | 54 | 1012.3 |
| 20260504173005 | 69 | 141 | 4.3 | 7.0 | 0.00 | 0.00 | 0.00 | 56 | 1012.5 |
| 20260504172501 | 68 | 132 | 7.8 | 13.9 | 0.00 | 0.00 | 0.00 | 55 | 1012.7 |
| 20260504171957 | 68 | 138 | 6.1 | 9.6 | 0.00 | 0.00 | 0.00 | 54 | 1012.7 |
| 20260504171454 | 68 | 169 | 7.0 | 13.0 | 0.00 | 0.00 | 0.00 | 53 | 1012.6 |
| 20260504170951 | 68 | 157 | 5.2 | 13.9 | 0.00 | 0.00 | 0.00 | 52 | 1012.8 |
| 20260504170447 | 68 | 199 | 6.1 | 12.2 | 0.00 | 0.00 | 0.00 | 54 | 1012.8 |
| 20260504160407 | 67 | 129 | 7.8 | 11.3 | 0.00 | 0.00 | 0.00 | 54 | 1013.7 |
| 20260504150831 | 65 | 144 | 7.8 | 11.3 | 0.00 | 0.00 | 0.00 | 50 | 1014.4 |
| 20260504150328 | 65 | 178 | 2.6 | 3.5 | 0.00 | 0.00 | 0.00 | 52 | 1014.4 |
| 20260504141258 | 62 | 138 | 4.3 | 11.3 | 0.00 | 0.00 | 0.00 | 55 | 1014.7 |
| 20260504140754 | 62 | 141 | 3.5 | 7.0 | 0.00 | 0.00 | 0.00 | 54 | 1014.6 |
| 20260504140250 | 61 | 93 | 5.2 | 7.8 | 0.00 | 0.00 | 0.00 | 53 | 1014.7 |
| 20260504130719 | 57 | 131 | 3.5 | 6.1 | 0.00 | 0.00 | 0.00 | 59 | 1014.7 |
| 20260504130214 | 56 | 106 | 4.3 | 6.1 | 0.00 | 0.00 | 0.00 | 61 | 1014.7 |
| 20260504120139 | 53 | 129 | 0.9 | 6.1 | 0.00 | 0.00 | 0.00 | 70 | 1014.9 |
| 20260504110606 | 48 | 95 | 0.0 | 0.9 | 0.00 | 0.00 | 0.00 | 72 | 1015.2 |
| 20260504100533 | 48 | 230 | 0.0 | 0.0 | 0.00 | 0.00 | 0.00 | 68 | 1015.3 |
| 20260504081926 | 0 | 0.0 | 0.0 | 0.00 | 0.00 | 0.00 | 1016.0 | ||
| 20260504081424 | 0 | 0.0 | 0.0 | 0.00 | 0.00 | 0.00 | 1016.1 | ||
| 20260504080919 | 0 | 0.0 | 0.0 | 0.00 | 0.00 | 0.00 | 1016.2 | ||
| 20260504080417 | 0 | 0.0 | 0.0 | 0.00 | 0.00 | 0.00 | 1015.9 | ||
| 20260504070344 | 0 | 0.0 | 0.0 | 0.00 | 0.00 | 0.00 | 1016.3 |